Time,TemperatureF,DewpointF,PressureIn,WindDirection,WindDirectionDegrees,WindSpeedMPH,WindSpeedGustMPH,Humidity,HourlyPrecipIn,Conditions,Clouds,dailyrainin,SoftwareType,DateUTC
2017-12-13 00:04:00,39.0,24.0,29.82,North,-9999,-999.9,-999.0,55,-99.99,,,-99.99,,2017-12-13 06:04:00,
2017-12-13 00:09:00,39.2,24.0,29.83,North,-9999,-999.9,-999.0,55,-99.99,,,-99.99,,2017-12-13 06:09:00,
2017-12-13 00:14:00,39.2,24.0,29.83,North,-9999,-999.9,-999.0,55,-99.99,,,-99.99,,2017-12-13 06:14:00,
2017-12-13 00:19:00,39.2,24.0,29.82,North,-9999,-999.9,-999.0,55,-99.99,,,-99.99,,2017-12-13 06:19:00,
2017-12-13 00:24:00,39.2,24.0,29.82,North,-9999,-999.9,-999.0,55,-99.99,,,-99.99,,2017-12-13 06:24:00,
2017-12-13 00:29:00,39.2,24.0,29.81,North,-9999,-999.9,-999.0,55,-99.99,,,-99.99,,2017-12-13 06:29:00,
2017-12-13 00:34:00,39.2,24.0,29.81,North,-9999,-999.9,-999.0,55,-99.99,,,-99.99,,2017-12-13 06:34:00,
2017-12-13 00:39:00,39.2,24.0,29.81,North,-9999,-999.9,-999.0,55,-99.99,,,-99.99,,2017-12-13 06:39:00,
2017-12-13 00:44:00,39.2,25.0,29.80,North,-9999,-999.9,-999.0,56,-99.99,,,-99.99,,2017-12-13 06:44:00,
2017-12-13 00:49:00,39.2,25.0,29.81,North,-9999,-999.9,-999.0,56,-99.99,,,-99.99,,2017-12-13 06:49:00,
2017-12-13 00:54:00,39.2,25.0,29.80,North,-9999,-999.9,-999.0,58,-99.99,,,-99.99,,2017-12-13 06:54:00,
2017-12-13 01:00:00,39.2,26.0,29.80,North,-9999,-999.9,-999.0,59,-99.99,,,-99.99,,2017-12-13 07:00:00,
2017-12-13 01:05:00,39.2,26.0,29.79,North,-9999,-999.9,-999.0,60,-99.99,,,-99.99,,2017-12-13 07:05:00,
2017-12-13 01:10:00,39.0,26.0,29.79,North,-9999,-999.9,-999.0,61,-99.99,,,-99.99,,2017-12-13 07:10:00,
2017-12-13 01:15:00,39.0,26.0,29.79,North,-9999,-999.9,-999.0,61,-99.99,,,-99.99,,2017-12-13 07:15:00,
2017-12-13 01:20:00,38.8,26.0,29.80,North,-9999,-999.9,-999.0,61,-99.99,,,-99.99,,2017-12-13 07:20:00,
2017-12-13 01:25:00,38.8,26.0,29.79,North,-9999,-999.9,-999.0,61,-99.99,,,-99.99,,2017-12-13 07:25:00,
2017-12-13 01:30:00,39.0,27.0,29.79,North,-9999,-999.9,-999.0,61,-99.99,,,-99.99,,2017-12-13 07:30:00,
2017-12-13 01:35:00,39.2,26.0,29.79,North,-9999,-999.9,-999.0,61,-99.99,,,-99.99,,2017-12-13 07:35:00,
2017-12-13 01:40:00,39.2,26.0,29.78,North,-9999,-999.9,-999.0,61,-99.99,,,-99.99,,2017-12-13 07:40:00,
2017-12-13 01:45:00,39.2,26.0,29.79,North,-9999,-999.9,-999.0,61,-99.99,,,-99.99,,2017-12-13 07:45:00,
2017-12-13 01:50:00,39.2,26.0,29.79,North,-9999,-999.9,-999.0,61,-99.99,,,-99.99,,2017-12-13 07:50:00,
2017-12-13 01:56:00,39.2,26.0,29.78,North,-9999,-999.9,-999.0,61,-99.99,,,-99.99,,2017-12-13 07:56:00,
2017-12-13 02:01:00,39.2,26.0,29.79,North,-9999,-999.9,-999.0,61,-99.99,,,-99.99,,2017-12-13 08:01:00,
2017-12-13 02:06:00,39.2,26.0,29.79,North,-9999,-999.9,-999.0,61,-99.99,,,-99.99,,2017-12-13 08:06:00,
2017-12-13 02:11:00,39.0,27.0,29.77,North,-9999,-999.9,-999.0,61,-99.99,,,-99.99,,2017-12-13 08:11:00,
2017-12-13 02:16:00,38.8,26.0,29.79,North,-9999,-999.9,-999.0,61,-99.99,,,-99.99,,2017-12-13 08:16:00,
2017-12-13 02:21:00,39.0,27.0,29.79,North,-9999,-999.9,-999.0,61,-99.99,,,-99.99,,2017-12-13 08:21:00,
2017-12-13 02:26:00,39.0,27.0,29.78,North,-9999,-999.9,-999.0,61,-99.99,,,-99.99,,2017-12-13 08:26:00,
2017-12-13 02:31:00,38.6,26.0,29.78,North,-9999,-999.9,-999.0,61,-99.99,,,-99.99,,2017-12-13 08:31:00,
2017-12-13 02:36:00,38.6,26.0,29.77,North,-9999,-999.9,-999.0,61,-99.99,,,-99.99,,2017-12-13 08:36:00,
2017-12-13 02:41:00,38.4,26.0,29.77,North,-9999,-999.9,-999.0,61,-99.99,,,-99.99,,2017-12-13 08:41:00,
2017-12-13 02:46:00,38.6,26.0,29.77,North,-9999,-999.9,-999.0,61,-99.99,,,-99.99,,2017-12-13 08:46:00,
2017-12-13 02:52:00,38.8,26.0,29.77,North,-9999,-999.9,-999.0,61,-99.99,,,-99.99,,2017-12-13 08:52:00,
2017-12-13 02:57:00,38.8,27.0,29.77,North,-9999,-999.9,-999.0,63,-99.99,,,-99.99,,2017-12-13 08:57:00,
2017-12-13 03:02:00,39.2,27.0,29.77,North,-9999,-999.9,-999.0,61,-99.99,,,-99.99,,2017-12-13 09:02:00,
2017-12-13 03:07:00,39.3,27.0,29.76,North,-9999,-999.9,-999.0,61,-99.99,,,-99.99,,2017-12-13 09:07:00,
2017-12-13 03:12:00,39.5,27.0,29.76,North,-9999,-999.9,-999.0,61,-99.99,,,-99.99,,2017-12-13 09:12:00,
2017-12-13 03:17:00,39.7,27.0,29.76,North,-9999,-999.9,-999.0,61,-99.99,,,-99.99,,2017-12-13 09:17:00,
2017-12-13 03:22:00,39.9,27.0,29.77,North,-9999,-999.9,-999.0,61,-99.99,,,-99.99,,2017-12-13 09:22:00,
2017-12-13 03:27:00,39.7,27.0,29.77,North,-9999,-999.9,-999.0,61,-99.99,,,-99.99,,2017-12-13 09:27:00,
2017-12-13 03:32:00,39.5,27.0,29.77,North,-9999,-999.9,-999.0,61,-99.99,,,-99.99,,2017-12-13 09:32:00,
2017-12-13 03:37:00,39.7,27.0,29.77,North,-9999,-999.9,-999.0,61,-99.99,,,-99.99,,2017-12-13 09:37:00,
2017-12-13 03:42:00,39.9,27.0,29.75,North,-9999,-999.9,-999.0,61,-99.99,,,-99.99,,2017-12-13 09:42:00,
2017-12-13 03:47:00,40.0,27.0,29.76,North,-9999,-999.9,-999.0,61,-99.99,,,-99.99,,2017-12-13 09:47:00,
2017-12-13 03:52:00,40.0,27.0,29.76,North,-9999,-999.9,-999.0,61,-99.99,,,-99.99,,2017-12-13 09:52:00,